Temp
17 16 15 16 16 17 14 13 14 16 17 17 16 16 16 17 17 16 15 14 14 14 15 15 15 16 16 16 16 16 15 15 15 14 13 13 13 13 13 13 13 13 13
15 15 16 15 15 16 14 14 15 15 16 17 16 16 16 16 16 16 15 15 14 14 14 14 15 15 15 15 15 15 15 15 14 14 13 13 13 13 12 12 12 12 12
15 16 15 15 15 14 14 13 13 16 17 16 16 16 16 16 15 14 14 15 14 13 13 13 14 14 14 14 15 15 15 15 14 14 13 13 12 12 12 12 11 11 11
16 15 15 15 14 14 14 14 14 14 14 16 15 16 16 15 15 14 12 12 13 13 13 14 14 14 14 14 14 14 14 13 13 13 13 12 12 11 11 11 11 11 11
15 15 15 15 15 14 14 13 13 14 15 15 15 14 13 13 13 14 14 12 12 12 11 13 14 14 14 14 12 13 13 13 13 13 12 12 11 11 11 11 10 10 10
16 16 15 15 15 14 14 13 15 15 15 15 13 13 13 14 14 14 13 13 13 13 13 12 12 12 13 13 13 13 13 12 12 11 11 11 11 10 10 10 10 9 9
16 16 16 16 15 15 14 14 15 15 16 15 15 12 13 14 14 14 14 13 13 13 13 11 12 11 11 11 12 12 12 12 12 11 11 10 10 10 10 10 9 9 9
16 16 17 16 17 16 14 13 14 15 15 13 15 14 14 14 14 13 13 13 13 12 12 12 12 12 12 10 10 12 12 12 10 10 9 9 10 10 10 9 9 9 9
16 17 17 16 16 16 15 14 14 15 14 14 15 14 14 13 13 13 12 11 12 12 12 12 11 11 11 11 10 10 10 10 10 10 10 10 10 10 10 9 9 9 9
16 17 17 17 16 16 14 15 15 15 13 12 14 14 14 13 13 12 12 12 11 11 10 11 11 11 11 11 9 9 9 9 9 8 8 8 8 9 9 9 9 10 11
16 16 17 16 16 15 15 16 15 14 13 13 13 13 13 12 12 12 11 11 11 11 11 9 11 11 10 10 10 9 9 8 9 9 10 10 9 9 9 7 8 8 9
17 16 16 16 16 15 16 16 15 14 13 13 13 12 12 12 12 11 11 11 11 11 10 10 10 10 10 10 10 10 9 9 10 10 10 10 9 9 8 7 7 7 7
15 15 15 14 15 15 15 15 15 14 13 13 12 12 12 12 11 11 11 10 10 10 10 10 10 9 9 9 9 9 9 10 10 10 10 9 8 8 7 7 7 7 7
14 14 14 15 15 15 14 14 14 14 13 13 12 13 12 12 11 11 10 10 10 10 9 10 9 9 9 8 8 9 9 9 9 9 9 8 8 8 8 8 8 8 8
13 13 13 14 14 14 13 13 14 13 13 13 12 12 12 11 11 11 10 10 9 9 9 9 8 9 10 10 9 9 9 9 9 8 8 8 8 8 8 8 8 8 8
13 13 12 13 13 13 13 13 13 13 12 12 12 12 11 11 11 10 10 9 9 9 9 9 10 10 10 10 10 9 9 8 8 8 8 8 8 8 7 8 8 8 8
12 12 12 12 12 12 13 13 12 12 12 12 11 11 11 11 10 10 10 9 9 9 9 10 10 10 10 10 10 10 9 8 8 8 8 8 8 8 8 8 8 8 8
11 11 11 12 12 12 12 12 12 12 12 11 11 11 10 10 10 10 9 8 8 9 10 11 10 10 10 10 9 9 9 8 8 8 8 8 8 8 8 8 8 8 8
10 10 10 11 11 11 11 11 11 11 10 9 10 10 9 9 9 8 8 8 10 10 10 10 10 10 10 9 9 9 8 9 8 8 8 8 8 8 8 8 8 7 7
10 10 10 10 11 11 10 10 11 11 11 10 10 9 10 9 9 8 8 8 10 11 11 10 10 10 10 9 9 9 8 8 8 8 8 8 8 8 8 8 8 8 8
10 10 10 11 11 11 12 12 12 12 12 12 11 10 10 10 11 10 10 10 10 10 10 10 10 10 9 9 9 9 9 9 9 8 8 8 8 8 8 8 8 8 8
11 10 11 12 12 12 12 12 12 12 12 12 11 11 11 11 11 11 10 10 10 10 10 10 10 10 10 10 9 9 9 9 9 8 8 7 7 7 7 7 7 8 8
11 11 12 12 12 12 12 12 12 12 12 12 12 11 11 10 11 11 11 10 10 10 9 9 9 10 9 9 9 8 8 8 7 6 6 6 6 6 6 6 6 6 6
11 12 12 12 12 11 12 12 12 12 12 12 12 12 11 11 11 11 11 10 9 9 9 9 8 8 9 9 8 8 8 8 7 5 6 5 5 5 5 5 5 5 5
12 12 12 12 12 12 12 12 13 13 12 12 12 11 11 11 11 11 10 9 9 9 9 9 9 9 9 8 8 8 7 6 6 5 5 4 3 3 3 3 4 4 4
11 11 12 12 12 12 12 13 13 13 12 12 11 11 11 10 11 10 10 10 9 9 9 8 8 8 8 7 7 7 6 5 5 5 4 3 2 2 2 2 2 2 3
Height
1536 1536 1537 1543 1544 1546 1548 1548 1547 1545 1543 1541 1540 1539 1538 1538 1538 1537 1536 1536 1535 1533 1531 1530 1529 1529 1530 1532 1533 1535 1536 1538 1540 1542 1542 1545 1544 1546 1549 1549 1550 1550 1550
1534 1530 1538 1543 1544 1546 1548 1548 1547 1546 1543 1541 1541 1541 1540 1540 1539 1539 1539 1538 1537 1535 1534 1533 1532 1531 1531 1532 1534 1536 1537 1537 1539 1540 1541 1542 1544 1546 1547 1548 1548 1549 1550
1533 1535 1540 1543 1545 1547 1550 1549 1548 1546 1544 1543 1543 1543 1542 1541 1542 1541 1541 1539 1538 1537 1537 1536 1535 1534 1534 1534 1535 1535 1536 1536 1537 1537 1539 1542 1544 1545 1546 1548 1548 1548 1549
1537 1538 1541 1544 1545 1546 1547 1548 1548 1548 1548 1545 1545 1544 1544 1544 1544 1544 1544 1543 1541 1540 1538 1537 1536 1536 1536 1537 1536 1537 1537 1537 1537 1538 1539 1541 1543 1546 1547 1548 1548 1548 1549
1540 1543 1544 1545 1547 1548 1547 1548 1549 1549 1548 1547 1546 1546 1546 1546 1546 1545 1545 1545 1544 1543 1542 1541 1540 1540 1539 1538 1539 1539 1539 1540 1539 1539 1540 1542 1544 1546 1547 1548 1548 1549 1549
1541 1543 1544 1546 1547 1547 1548 1549 1548 1548 1548 1548 1549 1548 1547 1547 1547 1547 1547 1546 1546 1545 1544 1545 1544 1543 1542 1541 1540 1540 1540 1541 1542 1542 1543 1544 1546 1547 1547 1548 1548 1549 1550
1540 1541 1541 1543 1544 1545 1548 1548 1547 1547 1548 1548 1549 1549 1548 1548 1548 1549 1549 1548 1548 1547 1547 1548 1549 1547 1546 1545 1543 1542 1542 1543 1543 1545 1546 1547 1547 1547 1547 1547 1547 1548 1549
1537 1537 1540 1541 1541 1542 1545 1548 1547 1545 1546 1548 1548 1549 1548 1548 1549 1550 1550 1550 1550 1550 1549 1549 1549 1549 1547 1547 1546 1544 1544 1544 1545 1546 1546 1547 1547 1547 1548 1548 1548 1548 1548
1534 1535 1537 1539 1541 1541 1542 1544 1545 1544 1545 1546 1547 1547 1548 1549 1549 1550 1551 1552 1551 1552 1551 1551 1551 1550 1549 1548 1548 1548 1547 1547 1547 1547 1547 1547 1547 1547 1547 1550 1549 1549 1549
1533 1534 1535 1536 1539 1541 1541 1543 1542 1542 1543 1545 1545 1545 1546 1548 1549 1550 1551 1551 1552 1553 1553 1552 1551 1551 1550 1550 1551 1551 1551 1551 1551 1550 1548 1548 1547 1547 1547 1547 1549 1548 1548
1529 1531 1532 1534 1535 1537 1538 1539 1540 1540 1541 1542 1543 1544 1546 1547 1549 1550 1550 1552 1552 1552 1552 1552 1552 1552 1551 1551 1551 1552 1551 1551 1551 1552 1553 1553 1552 1552 1550 1548 1546 1548 1547
1525 1528 1530 1531 1533 1534 1535 1536 1537 1537 1539 1541 1542 1543 1544 1546 1547 1549 1550 1551 1551 1551 1552 1552 1552 1553 1552 1552 1552 1551 1552 1552 1554 1554 1554 1554 1553 1552 1551 1548 1546 1545 1546
1523 1524 1526 1528 1530 1531 1531 1532 1532 1532 1535 1537 1539 1541 1543 1544 1545 1546 1548 1548 1549 1550 1551 1552 1553 1553 1553 1552 1552 1553 1553 1555 1555 1555 1554 1554 1552 1551 1548 1549 1547 1545 1544
1520 1522 1523 1525 1525 1526 1525 1525 1527 1528 1529 1532 1535 1537 1539 1541 1543 1544 1546 1547 1548 1549 1551 1552 1553 1553 1554 1554 1554 1555 1555 1555 1555 1555 1554 1553 1552 1550 1550 1548 1547 1546 1546
1516 1518 1519 1520 1520 1520 1519 1519 1521 1523 1526 1529 1532 1535 1538 1540 1541 1542 1544 1545 1546 1549 1550 1552 1554 1555 1555 1555 1555 1556 1556 1556 1556 1555 1554 1553 1552 1551 1550 1548 1547 1545 1545
1514 1514 1515 1516 1517 1517 1516 1517 1519 1521 1523 1527 1531 1534 1536 1538 1538 1540 1542 1545 1546 1548 1550 1553 1554 1554 1554 1554 1555 1555 1556 1556 1556 1555 1554 1552 1551 1550 1549 1547 1546 1545 1543
1512 1511 1513 1514 1515 1516 1516 1516 1517 1520 1523 1526 1529 1531 1534 1536 1537 1538 1540 1543 1545 1548 1550 1552 1553 1553 1553 1554 1554 1555 1556 1555 1554 1555 1554 1553 1551 1550 1548 1547 1545 1544 1542
1508 1510 1512 1513 1514 1515 1516 1518 1519 1520 1522 1525 1528 1529 1531 1533 1535 1536 1539 1541 1545 1547 1549 1550 1551 1552 1552 1552 1553 1554 1554 1554 1554 1553 1552 1551 1550 1549 1548 1546 1544 1543 1541
1506 1507 1510 1512 1512 1515 1516 1518 1520 1521 1523 1525 1526 1528 1530 1531 1533 1535 1537 1540 1545 1546 1547 1548 1549 1549 1550 1551 1552 1552 1552 1553 1552 1551 1551 1551 1549 1547 1547 1545 1543 1541 1540
1505 1505 1509 1511 1512 1515 1516 1519 1522 1524 1525 1526 1527 1528 1527 1529 1532 1533 1536 1540 1543 1544 1545 1545 1546 1547 1548 1549 1550 1551 1551 1551 1550 1550 1549 1549 1547 1546 1544 1542 1540 1539 1537
1505 1505 1508 1512 1513 1516 1517 1519 1521 1523 1525 1526 1527 1527 1528 1531 1533 1535 1537 1538 1540 1541 1542 1544 1544 1544 1545 1546 1547 1547 1548 1549 1548 1547 1546 1546 1544 1543 1541 1539 1537 1535 1533
1505 1507 1508 1511 1513 1514 1516 1518 1520 1522 1523 1525 1526 1526 1528 1529 1533 1534 1536 1537 1538 1539 1541 1541 1542 1542 1542 1543 1544 1545 1544 1544 1543 1543 1542 1541 1540 1538 1536 1534 1532 1530 1528
1504 1506 1508 1510 1512 1513 1515 1517 1519 1521 1522 1524 1525 1526 1527 1529 1531 1532 1533 1534 1535 1536 1537 1537 1538 1538 1538 1537 1537 1537 1539 1539 1538 1536 1536 1536 1535 1533 1531 1529 1527 1525 1523
1502 1504 1506 1508 1510 1512 1513 1515 1517 1519 1520 1522 1523 1525 1526 1526 1528 1529 1529 1530 1530 1531 1531 1532 1532 1533 1532 1532 1531 1531 1531 1531 1531 1530 1529 1528 1528 1527 1525 1522 1521 1519 1517
1500 1501 1503 1505 1507 1509 1511 1513 1514 1515 1517 1519 1520 1521 1522 1523 1523 1524 1525 1523 1525 1525 1526 1526 1527 1526 1526 1527 1526 1525 1525 1525 1525 1524 1523 1521 1520 1517 1516 1516 1515 1513 1511
1496 1498 1500 1502 1504 1506 1508 1509 1511 1512 1513 1514 1516 1517 1517 1519 1519 1519 1518 1517 1518 1520 1522 1521 1521 1521 1521 1521 1520 1520 1519 1518 1517 1516 1515 1514 1513 1513 1511 1510 1510 1508 1507
Wind_Speed
15 14 13 6 6 4 6 5 4 6 7 9 9 10 9 8 8 7 8 8 9 8 6 6 7 2 4 5 6 4 5 7 7 8 11 13 9 7 6 2 1 1 1
15 14 11 11 7 8 6 5 7 8 10 11 10 10 10 9 9 9 8 8 9 11 11 9 9 9 8 7 4 4 4 4 5 8 12 13 8 8 4 2 2 2 2
12 17 13 11 10 10 7 6 6 9 10 11 10 10 10 11 11 11 10 11 10 10 10 10 11 10 10 7 5 2 0 1 3 5 10 11 7 6 5 3 2 3 1
17 18 15 12 11 11 10 8 8 8 9 10 11 11 11 12 12 12 11 12 13 14 13 13 11 11 11 10 9 8 6 4 5 7 9 10 8 8 5 3 1 2 2
12 12 12 11 11 10 10 9 8 8 8 9 10 10 10 9 9 10 10 11 12 13 14 15 16 15 14 11 10 10 10 9 9 9 9 8 6 5 3 3 3 3 2
14 13 13 12 11 10 9 9 9 8 8 8 8 8 8 7 8 7 9 9 10 11 13 13 13 12 12 12 12 11 10 11 10 9 8 7 6 4 2 1 1 1 2
13 13 14 13 12 10 10 9 8 7 7 8 7 7 7 6 7 7 7 8 9 10 11 11 10 10 11 10 10 10 9 8 9 9 8 7 5 2 3 2 1 1 2
12 13 11 11 11 10 12 12 10 8 8 8 7 6 6 6 6 6 7 7 8 9 9 10 9 9 9 10 9 9 10 10 12 10 11 9 6 5 5 3 3 5 4
14 13 13 15 16 12 13 11 10 4 7 8 6 6 6 6 4 5 8 7 7 7 7 7 7 7 8 8 8 10 11 13 12 11 10 9 7 5 3 2 4 3 4
16 15 16 15 15 12 11 9 7 5 6 7 9 8 7 7 5 5 6 6 7 5 6 5 5 5 5 6 8 7 8 8 7 7 9 9 10 9 7 3 3 4 6
19 20 19 18 17 15 15 11 7 6 10 8 10 9 8 7 7 7 6 6 5 4 3 4 4 6 6 6 6 5 5 5 5 5 6 5 6 6 5 6 5 5 2
16 20 23 21 18 17 20 19 15 12 6 10 11 10 9 9 8 8 6 5 5 5 3 4 5 6 6 6 4 3 3 5 2 2 3 4 4 4 5 5 6 4 3
14 14 18 17 17 16 19 23 26 24 16 12 14 11 8 8 7 8 8 8 6 5 3 6 8 9 8 7 7 8 10 5 3 3 3 4 4 5 5 6 7 10 8
15 15 18 19 18 18 19 22 22 25 23 19 17 13 8 9 7 8 8 8 7 7 7 8 7 7 7 5 7 7 4 4 3 3 3 4 4 4 4 5 5 6 5
13 14 15 16 15 14 16 19 20 18 18 22 16 13 10 9 9 9 8 8 10 10 11 10 6 4 2 3 3 3 3 4 4 5 4 4 4 5 5 6 5 5 4
9 8 9 10 10 10 11 11 13 13 16 14 15 13 10 9 8 8 8 10 10 12 11 6 6 5 4 4 3 3 3 4 4 5 5 5 4 5 6 4 5 5 5
9 9 9 10 11 10 10 11 13 15 17 15 14 10 10 8 8 9 9 10 11 14 7 8 7 6 5 4 3 3 2 1 5 4 5 6 6 5 8 5 5 5 6
10 10 10 12 11 10 12 13 13 12 16 14 12 11 11 9 10 10 10 11 12 13 9 9 8 7 5 4 3 2 1 1 2 3 4 5 6 7 7 6 6 6 7
10 11 11 11 13 13 12 12 13 13 11 11 12 11 10 10 10 10 11 11 9 10 10 10 9 7 6 5 5 4 3 2 2 3 5 6 7 8 8 8 9 10 11
11 13 13 10 12 13 11 11 11 11 12 11 10 10 11 11 10 9 11 10 11 11 10 9 8 7 6 6 5 5 4 5 5 6 7 9 9 10 11 11 11 12 13
9 12 14 11 12 13 13 13 14 14 14 13 11 11 10 9 8 9 10 11 11 10 10 9 8 7 6 7 7 7 7 9 10 10 12 12 12 13 14 14 15 16 17
10 12 13 12 14 15 16 16 15 14 13 12 10 10 9 9 8 9 10 11 10 10 9 10 9 8 8 9 10 10 11 13 13 13 12 13 14 16 16 17 18 19 20
13 13 14 14 15 17 17 14 13 12 11 10 8 8 10 9 9 10 11 11 12 11 11 10 10 10 11 13 17 16 11 11 10 10 11 12 15 17 17 19 21 21 21
16 16 16 15 16 16 15 13 12 11 10 9 9 9 10 11 13 13 13 14 16 15 13 11 11 11 14 14 15 13 14 16 16 13 17 15 15 17 18 18 17 16 16
17 17 16 16 17 17 15 14 13 12 11 11 11 10 8 11 12 14 16 21 16 18 18 15 14 14 14 14 14 17 17 17 18 20 22 17 14 15 11 12 12 13 13
19 17 17 17 18 17 17 15 14 13 13 12 10 9 11 10 13 14 19 18 20 20 21 17 16 15 15 16 18 19 21 23 25 24 19 11 10 8 10 9 11 11 11
Wind_Direction
216 202 145 174 179 176 148 139 115 92 94 92 88 82 74 67 60 56 56 58 53 55 56 46 27 80 140 149 156 163 159 179 194 203 224 210 201 239 255 240 286 359 19
190 170 144 158 143 151 142 129 107 103 97 89 86 84 80 73 67 63 59 62 66 71 70 74 68 64 88 99 123 142 148 181 195 209 204 195 221 211 194 182 108 27 82
181 156 149 150 144 142 146 129 112 101 97 96 90 85 83 77 71 67 65 68 67 67 71 70 62 61 69 66 79 84 193 236 237 234 200 201 191 168 157 168 147 127 98
161 153 155 153 151 149 148 130 120 114 106 103 98 90 83 78 76 72 70 68 67 66 66 69 74 79 88 63 71 65 70 76 107 138 159 169 170 150 145 125 100 83 62
166 169 161 159 154 155 146 143 136 125 115 107 102 94 87 86 85 81 77 75 73 72 69 68 69 68 71 78 84 86 78 82 97 108 120 128 122 129 127 92 62 60 38
172 183 175 171 166 166 159 156 139 133 124 115 112 107 100 89 88 82 89 84 81 79 75 70 63 59 62 65 67 76 93 92 95 93 87 90 89 85 38 34 137 95 69
174 187 187 186 179 176 179 171 156 145 140 138 124 118 108 97 94 91 89 90 86 81 79 76 70 66 66 60 63 69 80 91 106 97 100 88 80 43 16 28 93 36 323
188 195 196 193 192 192 196 192 172 157 161 159 154 146 133 120 106 101 91 87 86 82 76 72 68 62 69 76 75 73 76 85 88 87 89 89 91 82 62 26 23 16 8
203 196 206 223 211 217 210 218 205 183 187 178 194 182 166 153 132 120 106 92 86 74 64 58 57 52 61 79 82 85 83 79 82 77 73 66 57 50 62 28 334 316 313
213 209 212 206 221 223 207 192 188 262 205 198 214 201 190 183 177 162 141 141 106 101 70 57 62 60 64 80 90 89 92 93 90 66 47 37 31 29 28 63 24 303 298
216 210 225 217 218 208 213 205 232 260 240 223 213 198 197 197 199 201 180 164 155 139 112 89 82 86 79 88 109 117 121 87 61 55 42 30 35 26 15 22 25 25 335
241 222 224 226 220 216 221 225 239 243 229 221 212 199 194 198 203 213 207 204 187 168 157 128 117 100 90 84 89 101 93 79 79 62 26 6 11 357 351 358 3 360 326
231 214 205 211 217 228 237 244 239 240 233 230 208 196 194 194 203 203 209 204 192 175 166 147 125 103 80 69 77 89 73 76 78 59 23 351 344 317 356 342 334 349 344
225 221 223 230 243 250 246 242 241 242 233 218 207 197 202 204 212 205 206 212 203 179 164 149 135 115 133 95 64 64 89 89 81 40 16 358 358 355 346 335 332 321 329
229 234 239 241 242 240 234 232 229 230 233 213 198 198 206 206 211 204 205 203 179 170 165 158 145 146 129 106 88 80 70 52 39 25 16 9 2 1 345 347 345 346 331
230 233 233 234 224 216 208 204 206 217 199 194 195 198 211 219 214 211 200 186 178 169 163 169 179 169 149 134 124 102 86 68 46 27 17 5 353 351 336 340 341 342 332
216 228 214 204 203 203 198 200 197 181 181 191 192 199 208 201 191 185 180 183 180 171 164 193 185 172 159 144 135 130 126 80 43 11 12 4 357 342 349 337 332 341 339
206 199 193 199 200 193 191 187 192 189 187 177 184 194 194 183 190 188 186 177 179 180 193 195 190 189 184 183 185 190 206 303 336 359 360 1 357 347 337 335 332 334 333
193 189 192 199 189 189 186 182 174 171 169 165 183 186 188 190 194 194 187 168 201 202 196 193 195 197 198 211 214 215 219 238 273 331 333 334 335 338 330 325 320 315 319
196 186 181 187 193 185 173 173 173 172 174 172 166 174 175 174 179 183 186 195 194 193 196 197 204 200 204 205 211 223 250 273 286 305 307 310 314 314 312 313 312 309 305
197 196 182 184 182 185 181 177 172 163 161 158 160 168 170 153 178 186 189 190 189 197 197 199 202 210 213 225 229 244 263 276 283 289 295 296 301 301 302 302 301 300 298
190 192 178 181 180 170 167 165 161 162 159 156 160 162 161 152 188 190 193 198 199 203 210 214 217 232 242 244 252 260 271 274 279 279 284 291 295 296 296 297 297 297 296
187 186 181 181 175 174 166 169 169 169 171 174 179 194 206 205 208 211 212 211 211 214 220 225 234 243 239 256 265 265 267 259 260 271 282 286 289 291 288 290 293 293 292
193 189 189 188 184 182 181 183 186 191 195 205 210 217 229 228 228 230 225 225 219 226 237 241 244 238 259 261 266 263 262 272 276 278 286 289 290 291 289 289 291 289 291
203 199 198 197 200 194 200 201 204 207 210 215 224 226 235 241 243 239 232 238 233 233 240 245 242 249 255 258 260 272 281 282 283 286 290 288 287 287 291 288 289 289 294
211 210 211 210 208 208 209 210 215 218 224 218 232 230 240 247 246 230 236 251 238 245 254 249 248 254 262 264 270 279 283 287 289 289 287 280 280 281 278 287 289 292 293